Location: Holyhead Bay
(53.3667°N, 4.6667°W)
Time: 00:13:34
(UTC+00:00)

IRIDIUM 33 DEB - Pass Details

Date: 29 September 2021
Orbit: 583 x 600 km, 86.4° (Epoch: 15 October)

Event Time Altitude Azimuth Distance (km) Brightness Sun altitude
Rises 18:28:28 0° 229° (SW) 2,850 ? -5.1°
Reaches altitude 10° 18:31:21 10° 250° (WSW) 1,951 ? -5.5°
Maximum altitude 18:34:11 17° 291° (WNW) 1,542 ? -6.0°
Drops below altitude 10° 18:37:03 10° 333° (NNW) 1,956 ? -6.4°
Sets 18:39:57 0° 354° (N) 2,861 ? -6.8°
